International Skating Union - Official Site

ESSENT ISU EUROPEAN SPEED SKATING CHAMPIONSHIPS 2010
January 9-10, 2010

Draw | Lap Times | Index | Classification

Referee: Erik  ØSMUNDSET  (NOR)
Starter: Rob  HEMMES  (NED)
StartTime: EndTime: Air Temp: Ice Temp: Humidity:
15:25 14℃ -9.7℃ 14.9%
Result 10000m Men Division A
Rankings as of Jan 10 2010 5:30PM
Rank: No.: Name: Nation: Time: Behind: Points:
1 69 Sven  KRAMER NED NED 13:19.32400m - 34.31 - (34.3)
800m - 1:05.64 - (31.3)
1200m - 1:36.94 - (31.3)
1600m - 2:08.01 - (31.0)
2000m - 2:39.67 - (31.6)
2400m - 3:10.52 - (30.8)
2800m - 3:41.88 - (31.3)
3200m - 4:13.62 - (31.7)
3600m - 4:45.81 - (32.1)
4000m - 5:17.44 - (31.6)
4400m - 5:49.53 - (32.0)
4800m - 6:21.39 - (31.8)
5200m - 6:53.29 - (31.9)
5600m - 7:25.12 - (31.8)
6000m - 7:57.16 - (32.0)
6400m - 8:28.95 - (31.7)
6800m - 9:00.78 - (31.8)
7200m - 9:32.61 - (31.8)
7600m - 10:04.73 - (32.1)
8000m - 10:36.75 - (32.0)
8400m - 11:08.87 - (32.1)
8800m - 11:41.11 - (32.2)
9200m - 12:13.63 - (32.5)
9600m - 12:46.10 - (32.4)
10000m - 13:19.32 - (33.2)
39.966
2 59 Alexis  CONTIN FRA FRA 13:25.77400m - 35.75 - (35.7)
800m - 1:08.10 - (32.3)
1200m - 1:40.14 - (32.0)
1600m - 2:12.32 - (32.1)
2000m - 2:44.67 - (32.3)
2400m - 3:16.86 - (32.1)
2800m - 3:49.60 - (32.7)
3200m - 4:21.78 - (32.1)
3600m - 4:54.33 - (32.5)
4000m - 5:26.73 - (32.4)
4400m - 5:59.75 - (33.0)
4800m - 6:32.17 - (32.4)
5200m - 7:04.78 - (32.6)
5600m - 7:36.05 - (31.2)
6000m - 8:07.62 - (31.5)
6400m - 8:39.17 - (31.5)
6800m - 9:11.05 - (31.8)
7200m - 9:43.12 - (32.0)
7600m - 10:15.02 - (31.9)
8000m - 10:46.95 - (31.9)
8400m - 11:18.97 - (32.0)
8800m - 11:50.83 - (31.8)
9200m - 12:22.40 - (31.5)
9600m - 12:54.03 - (31.6)
10000m - 13:25.77 - (31.7)
6.45 40.288
3 65 Enrico  FABRIS ITA ITA 13:28.72400m - 34.38 - (34.3)
800m - 1:05.58 - (31.2)
1200m - 1:37.08 - (31.5)
1600m - 2:08.54 - (31.4)
2000m - 2:39.75 - (31.2)
2400m - 3:11.46 - (31.7)
2800m - 3:43.11 - (31.6)
3200m - 4:15.15 - (32.0)
3600m - 4:47.37 - (32.2)
4000m - 5:19.86 - (32.4)
4400m - 5:52.36 - (32.5)
4800m - 6:24.89 - (32.5)
5200m - 6:57.51 - (32.6)
5600m - 7:29.83 - (32.3)
6000m - 8:02.10 - (32.2)
6400m - 8:34.52 - (32.4)
6800m - 9:06.98 - (32.4)
7200m - 9:39.59 - (32.6)
7600m - 10:11.97 - (32.3)
8000m - 10:44.65 - (32.6)
8400m - 11:17.25 - (32.6)
8800m - 11:49.98 - (32.7)
9200m - 12:22.73 - (32.7)
9600m - 12:55.71 - (32.9)
10000m - 13:28.72 - (33.0)
9.40 40.436
4 68 Jan  BLOKHUIJSEN NED NED 13:31.12400m - 35.08 - (35.0)
800m - 1:07.06 - (31.9)
1200m - 1:39.27 - (32.2)
1600m - 2:11.68 - (32.4)
2000m - 2:43.85 - (32.1)
2400m - 3:16.22 - (32.3)
2800m - 3:48.65 - (32.4)
3200m - 4:21.03 - (32.3)
3600m - 4:53.50 - (32.4)
4000m - 5:26.13 - (32.6)
4400m - 5:58.80 - (32.6)
4800m - 6:31.46 - (32.6)
5200m - 7:04.08 - (32.6)
5600m - 7:36.30 - (32.2)
6000m - 8:08.02 - (31.7)
6400m - 8:40.18 - (32.1)
6800m - 9:12.46 - (32.2)
7200m - 9:44.64 - (32.1)
7600m - 10:16.91 - (32.2)
8000m - 10:49.29 - (32.3)
8400m - 11:21.57 - (32.2)
8800m - 11:53.95 - (32.3)
9200m - 12:26.38 - (32.4)
9600m - 12:58.78 - (32.4)
10000m - 13:31.12 - (32.3)
11.80 40.556
5 84 Ivan  SKOBREV RUS RUS 13:33.02400m - 35.87 - (35.8)
800m - 1:07.85 - (31.9)
1200m - 1:40.45 - (32.6)
1600m - 2:13.11 - (32.6)
2000m - 2:45.61 - (32.5)
2400m - 3:18.15 - (32.5)
2800m - 3:50.76 - (32.6)
3200m - 4:23.30 - (32.5)
3600m - 4:55.96 - (32.6)
4000m - 5:28.73 - (32.7)
4400m - 6:01.36 - (32.6)
4800m - 6:33.88 - (32.5)
5200m - 7:06.41 - (32.5)
5600m - 7:39.02 - (32.6)
6000m - 8:11.45 - (32.4)
6400m - 8:43.77 - (32.3)
6800m - 9:15.97 - (32.2)
7200m - 9:48.23 - (32.2)
7600m - 10:20.44 - (32.2)
8000m - 10:52.48 - (32.0)
8400m - 11:24.57 - (32.0)
8800m - 11:56.89 - (32.3)
9200m - 12:29.03 - (32.1)
9600m - 13:00.88 - (31.8)
10000m - 13:33.02 - (32.1)
13.70 40.651
6 74 Henrik  CHRISTIANSEN NOR NOR 13:41.17400m - 36.19 - (36.2)
800m - 1:08.66 - (32.4)
1200m - 1:41.15 - (32.4)
1600m - 2:13.94 - (32.7)
2000m - 2:46.54 - (32.6)
2400m - 3:19.30 - (32.7)
2800m - 3:51.64 - (32.3)
3200m - 4:24.20 - (32.5)
3600m - 4:56.89 - (32.6)
4000m - 5:29.85 - (32.9)
4400m - 6:02.58 - (32.7)
4800m - 6:35.28 - (32.7)
5200m - 7:08.14 - (32.8)
5600m - 7:41.27 - (33.1)
6000m - 8:14.00 - (32.7)
6400m - 8:46.71 - (32.7)
6800m - 9:19.27 - (32.5)
7200m - 9:51.98 - (32.7)
7600m - 10:24.45 - (32.4)
8000m - 10:57.12 - (32.6)
8400m - 11:29.76 - (32.6)
8800m - 12:02.65 - (32.8)
9200m - 12:35.63 - (32.9)
9600m - 13:08.54 - (32.9)
10000m - 13:41.17 - (32.6)
21.85 41.058
7 70 Wouter  OLDE HEUVEL NED NED 13:45.60400m - 36.32 - (36.3)
800m - 1:08.19 - (31.8)
1200m - 1:40.99 - (32.8)
1600m - 2:13.67 - (32.6)
2000m - 2:46.25 - (32.5)
2400m - 3:18.91 - (32.6)
2800m - 3:51.84 - (32.9)
3200m - 4:24.54 - (32.7)
3600m - 4:57.39 - (32.8)
4000m - 5:30.17 - (32.7)
4400m - 6:02.97 - (32.8)
4800m - 6:35.67 - (32.7)
5200m - 7:08.51 - (32.8)
5600m - 7:41.15 - (32.6)
6000m - 8:14.17 - (33.0)
6400m - 8:47.44 - (33.2)
6800m - 9:21.13 - (33.6)
7200m - 9:54.44 - (33.3)
7600m - 10:28.05 - (33.6)
8000m - 11:01.70 - (33.6)
8400m - 11:34.91 - (33.2)
8800m - 12:07.79 - (32.8)
9200m - 12:40.30 - (32.5)
9600m - 13:12.68 - (32.3)
10000m - 13:45.60 - (32.9)
26.28 41.280
8 75 Sverre  HAUGLI NOR NOR 13:45.80400m - 36.04 - (36.0)
800m - 1:08.69 - (32.6)
1200m - 1:41.67 - (32.9)
1600m - 2:14.07 - (32.4)
2000m - 2:46.73 - (32.6)
2400m - 3:19.24 - (32.5)
2800m - 3:51.87 - (32.6)
3200m - 4:24.16 - (32.2)
3600m - 4:56.96 - (32.8)
4000m - 5:29.62 - (32.6)
4400m - 6:02.54 - (32.9)
4800m - 6:35.22 - (32.6)
5200m - 7:08.16 - (32.9)
5600m - 7:41.06 - (32.8)
6000m - 8:14.17 - (33.1)
6400m - 8:47.09 - (32.9)
6800m - 9:20.14 - (33.0)
7200m - 9:53.39 - (33.2)
7600m - 10:26.63 - (33.2)
8000m - 10:59.91 - (33.2)
8400m - 11:33.34 - (33.4)
8800m - 12:06.67 - (33.3)
9200m - 12:39.96 - (33.2)
9600m - 13:13.02 - (33.0)
10000m - 13:45.80 - (32.7)
26.48 41.290
9 71 Renz  ROTTEVEEL NED NED 13:50.03400m - 35.91 - (35.9)
800m - 1:08.19 - (32.2)
1200m - 1:40.56 - (32.3)
1600m - 2:13.02 - (32.4)
2000m - 2:45.37 - (32.3)
2400m - 3:18.01 - (32.6)
2800m - 3:50.54 - (32.5)
3200m - 4:23.20 - (32.6)
3600m - 4:55.97 - (32.7)
4000m - 5:28.93 - (32.9)
4400m - 6:01.96 - (33.0)
4800m - 6:35.29 - (33.3)
5200m - 7:08.47 - (33.1)
5600m - 7:41.86 - (33.3)
6000m - 8:15.39 - (33.5)
6400m - 8:49.06 - (33.6)
6800m - 9:22.51 - (33.4)
7200m - 9:55.99 - (33.4)
7600m - 10:29.49 - (33.5)
8000m - 11:02.93 - (33.4)
8400m - 11:36.37 - (33.4)
8800m - 12:09.67 - (33.3)
9200m - 12:43.15 - (33.4)
9600m - 13:16.82 - (33.6)
10000m - 13:50.03 - (33.2)
30.71 41.501
10 79 Konrad  NIEDZWIEDZKI POL POL 14:08.75400m - 36.01 - (36.0)
800m - 1:08.85 - (32.8)
1200m - 1:42.32 - (33.4)
1600m - 2:15.71 - (33.3)
2000m - 2:48.86 - (33.1)
2400m - 3:21.99 - (33.1)
2800m - 3:55.24 - (33.2)
3200m - 4:28.71 - (33.4)
3600m - 5:02.23 - (33.5)
4000m - 5:36.17 - (33.9)
4400m - 6:10.42 - (34.2)
4800m - 6:44.51 - (34.0)
5200m - 7:18.54 - (34.0)
5600m - 7:52.64 - (34.0)
6000m - 8:26.75 - (34.1)
6400m - 9:00.77 - (34.0)
6800m - 9:34.85 - (34.0)
7200m - 10:08.96 - (34.1)
7600m - 10:43.38 - (34.4)
8000m - 11:17.35 - (33.9)
8400m - 11:51.92 - (34.5)
8800m - 12:26.71 - (34.7)
9200m - 13:01.55 - (34.8)
9600m - 13:35.34 - (33.7)
10000m - 14:08.75 - (33.4)
49.43 42.437
11 87 Joel  ERIKSSON SWE SWE 14:13.68400m - 37.58 - (37.5)
800m - 1:11.34 - (33.7)
1200m - 1:45.67 - (34.3)
1600m - 2:19.63 - (33.9)
2000m - 2:53.28 - (33.6)
2400m - 3:26.69 - (33.4)
2800m - 4:00.76 - (34.0)
3200m - 4:34.76 - (34.0)
3600m - 5:08.68 - (33.9)
4000m - 5:43.13 - (34.4)
4400m - 6:17.51 - (34.3)
4800m - 6:51.56 - (34.0)
5200m - 7:25.77 - (34.2)
5600m - 8:00.22 - (34.4)
6000m - 8:34.42 - (34.2)
6400m - 9:08.60 - (34.1)
6800m - 9:42.88 - (34.2)
7200m - 10:17.38 - (34.5)
7600m - 10:51.77 - (34.3)
8000m - 11:25.91 - (34.1)
8400m - 12:00.24 - (34.3)
8800m - 12:34.12 - (33.8)
9200m - 13:07.49 - (33.3)
9600m - 13:40.95 - (33.4)
10000m - 14:13.68 - (32.7)
54.36 42.684
12 64 Matteo  ANESI ITA ITA 14:26.47400m - 37.10 - (37.1)
800m - 1:11.67 - (34.5)
1200m - 1:45.65 - (33.9)
1600m - 2:19.77 - (34.1)
2000m - 2:53.36 - (33.6)
2400m - 3:26.97 - (33.6)
2800m - 4:00.44 - (33.4)
3200m - 4:34.38 - (33.9)
3600m - 5:07.98 - (33.6)
4000m - 5:41.81 - (33.8)
4400m - 6:15.71 - (33.9)
4800m - 6:49.49 - (33.7)
5200m - 7:23.35 - (33.8)
5600m - 7:57.32 - (33.9)
6000m - 8:31.24 - (33.9)
6400m - 9:05.09 - (33.8)
6800m - 9:39.29 - (34.2)
7200m - 10:13.92 - (34.6)
7600m - 10:49.08 - (35.1)
8000m - 11:24.59 - (35.5)
8400m - 12:00.03 - (35.4)
8800m - 12:36.03 - (36.0)
9200m - 13:12.58 - (36.5)
9600m - 13:49.60 - (37.0)
10000m - 14:26.47 - (36.8)
67.15 43.323